User: anonymous   Login
Location: Unspecified
(0.0000°N, 0.0000°E)
Time: 22:08:08
(UTC+00:00)
Language:

JUGNU - Orbit

View from above orbital plane
View from above orbital plane
View from above satellite
View from above satellite

Ground track
Ground track

The orbit data is extracted from the following two-line orbital elements,

1 37839U 11058B   18344.22351907  .00000305  00000-0  20836-4 0  9995
2 37839  19.9626  49.7839 0019372  27.4951   4.4013 14.12636419370295
Epoch (UTC): 10 December 2018 05:21:52
Eccentricity: 0.0019372
inclination: 19.9626°
perigee height: 836 km
apogee height: 864 km
right ascension of ascending node: 49.7839°
argument of perigee: 27.4951°
revolutions per day: 14.12636419
mean anomaly at epoch: 4.4013°
orbit number at epoch: 37029

The dashed part of the orbit path shows where the satellite is in the earth's shadow,  

DLR